"Pseudo-MPEC" for 81TN001

Created 2024 Feb 13 13:22:02 UT using Find_Orb

Click here for an explanation of pseudo-MPECs

 
 Astrometry: 
     81TN001*KB2024 02 11J#6!yTLkHDa:nSepZI%@_.=/@p;V_I'/LrdL7qN52C]f.SFWY@qAK19
     81TN001 KB2024 02 11]a-vrlESULK@R,1#ZF6#^17CJBnlZN-AJ%hJ3CP^c(DN+%OA\3wHK19
     81TN001 KB2024 02 11JSkuP9AdgN+l.sA=lYZN$c3)8/?K,gO`2$6KEmt__(YUIP!\dO`'K19
     81TN001 KB2024 02 11bC?qcjXPtr=xbhD5r!tT4)W*9]Ydvw*G`NYkQ.!mPy/fKe:%yD6rK19
     81TN001 KB2024 02 11NOUb)?8'#_g,sX.$@crqb'73lQlFO($2M@;FXBJq00jBo=(AhD%2K19
     81TN001 KB2024 02 11I0$o`agds:^4`1dgutXq9'4uH?J[Qsl0BRK/px#.fJw(kr#IDp*XK19
     81TN001 KC2024 02 11.95429407 06 35.993+33 30 16.81   ~2BNM 19.5 GVNEOCPJ95
     81TN001 KC2024 02 11.95630607 06 36.235+33 29 50.35   ~2BNM 19.6 GVNEOCPJ95
     81TN001 KC2024 02 11.95832307 06 36.504+33 29 25.33   ~2BNM 19.7 GVNEOCPJ95
     81TN001 KC2024 02 11.96037107 06 36.701+33 28 58.51   ~2BNM 19.7 GVNEOCPJ95
     81TN001  C2024 02 12E,5d1Jp^Z'H_jr]nIf*!nvMKyqu^*@js_!CU`:iAN15eYo4ETinPX09
     81TN001  C2024 02 12=?)h;gr[2E@3iOM)rHyF44em^m8CaB:ZK)umU1%!+lj5tM-BL.V;X09
     81TN001 KC2024 02 12s$SMqkq2g1l8nh_JSK^1os_v[[Hi8=bpp6g;ay(LEuA3Zk@ypYde204
     81TN001 KB2024 02 12.09884 07 07 02.033+33 00 13.25   ~2C2q 19.7 GXNEOCPH36
     81TN001 KC2024 02 12R#ag^cVv[slQc3mJfOv2J=y_bt8XSVC+Y^M=)n]`heN[ine@57Zt204
     81TN001 KB2024 02 12.10140 07 07 02.316+32 59 41.21   ~2C2q 19.8 GXNEOCPH36
     81TN001 KB2024 02 12.10396 07 07 02.554+32 59 10.10   ~2C2q 18.8 GXNEOCPH36
     81TN001 KC2024 02 12TfX-BVl!n??p#3SYMBE!WhJB.*2Fd`FrMXYohq]yjS#a\P][,nIVH21
     81TN001 KC2024 02 12kX`#X%=$Qj61`%k1bj!omX0)bGdng$ay?Wx[5OLL:fQ+Qmv,Cd'L204
     81TN001 KB2024 02 12.10633 07 07 02.827+32 58 40.37   ~2C2q 19.1 GXNEOCPH36
     81TN001 KC2024 02 12LNjuDWS_1L#hJ_$Te*n+5\(PBxs,%y2.C-RT;legoT8.2ls:$+n:H21
     81TN001 KC2024 02 123x\eqBkJUym+WQgEGu7Ua])WwabFOD8;p[,tj_h,DDv1cwaTRH75H21
     81TN001 KC2024 02 12hwBhSr3k3)s#p2EW0iu`U87FAstrometryD]Yx%VAn/m[U[Su,?uH21
     81TN001 KB2024 02 12.13360 07 07 05.62 +32 53 01.4    ~2C57 19.7 GVNEOCP734
     81TN001 KB2024 02 12.14958 07 07 07.25 +32 49 42.5    ~2C57 19.4 GVNEOCP734
     81TN001 KB2024 02 12.15748 07 07 08.06 +32 48 04.0    ~2C57 19.6 GVNEOCP734
     81TN001 KB2024 02 12.16538 07 07 08.82 +32 46 25.8    ~2C57 19.5 GVNEOCP734
     81TN001 KB2024 02 12cO8jsP'ivKb3+`l;[:KNO.m;aiGdd0(TV,5y\aaIFHa)0fX`Ff-bQ06
     81TN001 KB2024 02 12(P/redacted;b:tLwPZ-]p,sWnCWp9rS#_e=+,KG4!WPp+#G57TLQ06
     81TN001 KB2024 02 12-:FbCuX\Hf9-QWl7(:%)KVS03yJ.LXILP1oLD+tdD[o!'-)A2gFBQ06
     81TN001 KB2024 02 12.79976007 08 39.686+30 37 40.41   ~2CK7 19.5 GXNEOCPB72
     81TN001 KB2024 02 12.80856907 08 40.598+30 35 57.53   ~2CK7 19.7 GXNEOCPB72
     81TN001 KB2024 02 12t0/u0Z]6l,bBrWHpv4`1)b9jE4#f5yaE/6/CsE5Z-1,4VZdjAvM]Z41
     81TN001 KB2024 02 12.81752807 08 41.514+30 34 12.70   ~2CK7 18.9 GXNEOCPB72
     81TN001 KB2024 02 125\#uI8Nd8]TGMmoaT[GsI#S3GN/OexmHBKnpi,.CT4JG^f!s3NBkZ41
     81TN001 KB2024 02 12\U80egP=4R?V#4'l@5iN#9Oa%QZ9Y^;XvwV:R.4ceD1vYK\mxs+2958
     81TN001 KB2024 02 12fe5JG`xrlclick%$BC(fT%E.*[*3O6FoU5s[6MB4F8Kq-m:i3IHX958
     81TN001 KB2024 02 12WRm3]here'MM1(^cR2_f2RF7#-*=wq@E)RRve5W(b^mj,-RrGr*S958
     81TN001 KB2024 02 12?AVL%M#vn#%FUUej3G,qoPr!7$s8w#kDGB#OFyCI$C$Y.HFVTK*jK35
     81TN001 KB2024 02 12uHy4EV%;T'8WV8VSa4v?G^gnnufsY0yTXxBXTHM.)?e9WulrcB71K35
     81TN001 KB2024 02 12ZXYO-yHfcHuA=S/?[=H]aX2-Pv)Batm.MoN6qI1rAe[`xc5J22=RK35
     81TN001 KB2024 02 12.88073607 08 48.70 +30 22 04.0    ~2CLb 19.5 GXNEOCPI93
     81TN001 KB2024 02 12.88250407 08 48.81 +30 21 43.3    ~2CLb 19.5 GXNEOCPI93
     81TN001 KB2024 02 12.88412007 08 49.01 +30 21 24.7    ~2CLb 18.9 GXNEOCPI93
     81TN001 KB2024 02 12o_939gZG:PP*!S;MtZ.5Zax5vGRhd*^#Cq=d,dX6nb7H$ev^s1sZK35
     81TN001 KB2024 02 12c.1@/c.tnlwk:0$Yh:'QQO/Gjk@$UN5O^S]2!*cforlXVkE@rPK9K35
     81TN001 1C2024 02 12.89751 07 08 49.13 +30 18 35.8    ~2CLq 20.0 VXNEOCP033
     81TN001 1C2024 02 12.89779 07 08 49.13 +30 18 33.0    ~2CLq 19.9 VXNEOCP033
     81TN001 1C2024 02 12.89807 07 08 49.16 +30 18 29.3    ~2CLq 20.1 VXNEOCP033
     81TN001 1C2024 02 12.89843 07 08 49.20 +30 18 25.2    ~2CLq 19.8 VXNEOCP033
     81TN001 KC2024 02 12.92381 07 08 52.826+30 13 27.08   ~2CMq 20.1 GVNEOCP970
     81TN001 KC2024 02 12h\`2M'6\/1GYI34SQ//75T\/fZ(%ehlF%(V_nWr=k,JBfY+#H_91M11
     81TN001 KC2024 02 12e%kH*H@J6fpooTc8LZ]X^YEqd?#*BAODwe*hQT]58=MwdQ5Cv,aRM11
     81TN001 KC2024 02 12.93417 07 08 53.818+30 11 26.52   ~2CMq 19.7 GVNEOCP970
     81TN001 KC2024 02 12%n/`j__J6$T$/.0w.'JLYh#n1S!r,Z6TDQD]jnsHRWeHAbVIg((UM11
     81TN001 KC2024 02 13`vgmQ9yf*T05xG%GtMIL^4Nw*Og1s'a:tmTtY^(CMZjR[dY+k=s?858
     81TN001 KC2024 02 13wJ$hE7bLyFF0tYHVu7F'rd`W/XQ)U!-\jRM,Xb$LsS+u/aqaxML_858
     81TN001 KC2024 02 13^[qidLkKb5#6u5]ni0GN,0j#eQU8#nP9e@#81O,juB-26PC7$)GH858
     81TN001 KB2024 02 13.18645 07 09 27.11 +29 23 23.2    ~2D5q 19.5 GVNEOCP734
     81TN001 KB2024 02 13.19360 07 09 27.72 +29 22 01.5    ~2D5q 19.4 GVNEOCP734
     81TN001 KB2024 02 13.20055 07 09 28.38 +29 20 42.2    ~2D5q 19.8 GVNEOCP734
     81TN001 KB2024 02 13.21408 07 09 29.56 +29 18 07.5    ~2D5q 19.8 GVNEOCP734
     81TN001 KB2024 02 13`f;$#0UpuOtg`#B:c2i_s!OIxf('hPgTP]3.mB$BqR01/R%sn28oQ06
     81TN001 KB2024 02 13b;H(C)JNqY$TFf!hEC9Q-$;_)4XwpFb1HE/explanationRI]#(;Q06

Station data:
(033) Karl Schwarzschild Observatory, Tautenburg  (N50.980137 E11.711240)
   Germany.  Observer B. Stecklum. 1.34-m f/3 Schmidt + CCD.
(204) Schiaparelli Observatory  (N45.868326 E8.769720)  Italy.  Observer L.
   Buzzi. 0.60-m f/4.64 Newtonian + CCD0.84-m f/3.5 reflector + CCD.
(734) Farpoint Observatory, Eskridge  (N38.890239 W96.002420)  US/Kansas.
   Observer G. Hug. 0.69-m reflector + CCD.
(858) Tebbutt Observatory, Edgewood  (N35.093869 W106.220000)  US/New Mexico.
    Observer F. B. Zoltowski. 0.16-m refractor + CCD0.51-m Schmidt-Cassegrain
   + CCD.
(958) Observatoire de Dax  (N43.693324 W1.030390)  France.  Observer P.
   Dupouy. 0.32-m Schmidt-Cassegrain.
(970) Chelmsford  (N51.744713 E0.495400)  UK/England.  Observer N. James.
   0.28-m f/10 Schmidt-Cassegrain + CCD.
(B72) Soerth  (N50.698827 E7.681050)  Germany.  Observer B. Koch.
   0.36-m f/7.6 Schmidt-Cassegrain + CCD + f/7.6 focal reducer.
(H21) Astronomical Research Observatory, Westfield  (N39.483054 W87.968270)
   US/Illinois.  Observer R. Holmes. Measurers S. Foglia, L. Buzzi, T.
   Linder, R. Holmes. 0.76-m f/3.0 astrograph + CCD0.81-m f/4.0 astrograph +
   CCD0.61-m f/4.5 astrograph + CCD0.40-m f/5.32 astrograph + CCD.
(H36) Sandlot Observatory, Scranton  (N38.797718 W95.706550)  US/Kansas.
   Observer G. Hug. 0.56-m reflector + CCD.
(I93) St Pardon de Conques  (N44.558708 W0.203000)  France.  Observers F.
   Losse, W. D'Anna. Measurer F. Losse. 0.40-m f/3.7 reflector + CCD.
(J95) Great Shefford  (N51.474969 W1.447003)  UK/England.  Observer P.
   Birtwhistle. 0.41-m f/6.3 Schmidt-Cassegrain + CCD.
(K19) PASTIS Observatory, Banon  (N43.999459 E5.647310)  France.  Observer C.
   Demeautis. 0.16-m f/3.3 reflector + CCD.
(K35) Huenfelden  (N50.313005 E8.163690)  Germany.  Observer P. Remmel.
   0.36-m f/1.9 reflector + CMO.
(M11) Novaastro Observatory, Banon  (N43.999386 E5.647180)  France.  Observer
   G. Attard. 0.28-m f/2.2 reflector + CCD.
(Q06) Tarui Observatory, Tarui  (N35.394791 E136.495470)  Japan.
(X09) Deep Random Survey, Rio Hurtado  (S30.526310 W70.853300)  Chile.
(Z41) Irydeo Observatory, Camarma de Esteruelas  (N40.561115 W3.373600)
   Spain.  Observer F. Calvo. 0.16-m f/3.3 reflector + CCD.

Orbital elements:  81TN001
   Perihelion 2023 Nov 18.55788 +/- 0.0381 TT = 13:23:20 (JD 2460267.05788)
Epoch 2024 Feb 13.0 TT = JDT 2460353.5   Earth MOID: 0.0529      AutoNEOCP
M  79.90583268 +/- 0.06             (J2000 ecliptic)
n   0.92438533 +/- 0.000389         Peri.   74.14773 +/- 0.052
a   1.04367997 +/- 0.000292         Node   323.07208 +/- 0.0045
e   0.2053954 +/- 0.000345          Incl.   13.63398 +/- 0.022
P   1.07/389.44d           H 23.76  G  0.15   U  7.5
q 0.82931288 +/- 0.000298    Q 1.25804706 +/- 0.000631
62 of 64 observations 2024 Feb. 11-13 (37.0 hr); mean residual 0".33
Residuals in arcseconds: 
240211 K19  .34-  .19-    240212 H21  .01-  .02-    240212 K35  .14+  .03-    
240211 K19  .11-  .33+    240212 734  .13-  .24+    240212 K35  .25+  .34-    
240211 K19  .28-  .15+    240212 734  .13+  .25+    240212 033  .36+  .02-    
240211 K19  .07+  .07+    240212 734  .38+  .16+    240212 033  .00   .46+    
240211 K19  .06-  .06-    240212 734  .02+  .43+    240212 033  .03+  .05+    
240211 K19  .29-  .21-    240212 Q06( 1.1-  1.7-)   240212 033  .08+  .17+    
240211 J95  .21-  .30+    240212 Q06  .53-  .89-    240212 970  .74+  .38-    
240211 J95  .04-  .45-    240212 Q06  .28+  .09-    240212 M11( .53-  2.0-)   
240211 J95  .45+  .31+    240212 B72  .08+  .19+    240212 M11  .02+  1.7-    
240211 J95  .00   .34-    240212 B72  .09+  .24+    240212 970  .24+  .25+    
240212 X09  .60-  .24+    240212 Z41  .30-  .14+    240212 M11  .20+  .25+    
240212 X09  .48-  .53+    240212 B72  .06+  .11+    240213 858  .08+  .06-    
240212 204  .16-  .26-    240212 Z41  .22+  .02+    240213 858  .03+  .07+    
240212 H36  .11+  .17-    240212 958  .22-  .16+    240213 858  .03+  .05+    
240212 204  .10-  .04+    240212 958  .19-  .40+    240213 734  .09-  .28-    
240212 H36  .30+  .43-    240212 958  .33-  1.3+    240213 734  .33-  .29-    
240212 H36  .06-  .26+    240212 K35  .20+  .10+    240213 734  .29+  .16-    
240212 H21  .15-  .42+    240212 K35  .08-  .24+    240213 734  .05+  .14-    
240212 204  .25-  .51-    240212 K35  .17+  .11-    240213 Q06  .50-  .30+    
240212 H36  .27+  .04-    240212 I93  .38+  .17-    240213 Q06  .88-  .10-    
240212 H21  .18+  .28+    240212 I93  .36-  .23-    
240212 H21  .03+  .20+    240212 I93  .25+  .04+    

Ephemerides (geocentric):
Date (UTC) HH   RA             Dec           delta  r     elong  mag " sig PA
